sat.trackr.live / text

‹ back to catalog

STARLINK-36989

NORAD 68277 · 2026-055R

PAYLOAD ACTIVE UNKNOWN

§ Identity

Operator
Country
US
Launch date
2026-03-19
Launch site
AFETR
Launch vehicle
Mass (kg)
RCS (m²)

Purposes: comms

External: N2YO · Heavens-Above · Gunter

§ Orbital elements

Epoch: 2026-09-19T22:15:08.402976Z

Period
93.85 min
Inclination
53.1570°
Eccentricity
0.0001773
Mean motion
15.34395964 rev/d
Perigee alt
461.5 km
Apogee alt
463.9 km
Semi-major
6,840.9 km
B*
5.7815e-4
RAAN
132.4874°
Arg perigee
39.3357°
Mean anomaly
320.7774°
Rev number
2,973

§ Raw data

STARLINK-369891 68277U 26055R   26262.92718059  .00019205  00000+0  57815-3 0  99922 68277  53.1570 132.4874 0001773  39.3357 320.7774 15.34395964 29730

JSON: /api/v1/satellites/68277 · /tle

For live sub-satellite position, see the globe view (requires WebGL).

§ Visibility from observer

Set your observer location to see the next 7 days of passes ≥ 10°. The values pass through the URL so the page stays shareable.

No JS? Fill the form by hand. The geolocation button needs JavaScript.